Flag for Japan Weather past 2 weeks in Fukushima, Japan

Now
80 °F

Light rain. Cloudy.


Feels Like: 86 °F
Forecast: 70 / 88 °F
Wind: 10 mph from South

Location: Wakamatsu

Current Time: Aug 22, 2014 at 5:22:31 PM

Latest Report: Aug 22, 2014 at 4:00 PM


Visibility: 13 mi

Pressure: 29.83 "Hg

Humidity: 87%

Dew point: 76 °F

Location of FukushimaLocation

Historic Weather in Fukushima — Graph

°F

Fukushima temperature yesterday

Maximum temperature yesterday: 89 °F (at 2:00 PM)
Minimum temperature yesterday: 73 °F (at 5:00 AM)
Average temperature yesterday: 81 °F

Past Weeks' High & Low Weather Summary

 TemperatureHumidityPressure
High94 °F (Aug 22, 1:00 PM)99% (Aug 13, 3:00 AM)30.01 "Hg (Aug 13, 3:00 AM)
Low64 °F (Aug 13, 2:00 AM)47% (Aug 22, 1:00 PM)29.29 "Hg (Aug 10, 6:00 PM)
Average78 °F82%29.81 "Hg
* Reported Aug 7 4:00 PM — Aug 22 4:00 PM, Fukushima, Weather by CustomWeather, © 2014

Note: Actual official high and low records may vary slightly from our data, if they occured in-between our weather recording intervals... More about our weather records

Advertising

Fukushima weather history for previous 24 hours

 ConditionsComfort  
Time TempWeatherWind HumidityBarometerVisibility
4:00 PM
Aug 22
80 °FLight rain. Cloudy.10 mph87%29.83 "Hg12 mi
3:00 PM89 °FHot.5 mph56%29.80 "Hg7 mi
2:00 PM92 °FHot.7 mph49%29.80 "Hg12 mi
1:00 PM94 °FExtremely hot.6 mph47%29.81 "Hg12 mi
12:00 PM92 °FHot.6 mph53%29.83 "Hg12 mi
11:00 AM89 °FHot.5 mph62%29.86 "Hg12 mi
10:00 AM87 °FWarm.5 mph66%29.88 "Hg12 mi
9:00 AM84 °FWarm.3 mph69%29.88 "Hg12 mi
8:00 AM81 °FWarm.3 mph77%29.89 "Hg12 mi
7:00 AM79 °FWarm.1 mph83%29.90 "Hg12 mi
6:00 AM75 °FMild.2 mph90%29.91 "Hg12 mi
5:00 AM74 °FMild.3 mph93%29.91 "Hg12 mi
4:00 AM75 °FMild.2 mph90%29.91 "Hg12 mi
3:00 AM75 °FMild.2 mph89%29.90 "Hg12 mi
2:00 AM77 °FMild.2 mph88%29.90 "Hg12 mi
1:00 AM77 °FWarm.1 mph90%29.90 "Hg12 mi
12:00 AM78 °FWarm.2 mph87%29.90 "Hg12 mi
11:00 PM
Aug 21
79 °FWarm.1 mph82%29.90 "Hg12 mi
10:00 PM79 °FWarm.No wind81%29.90 "Hg12 mi
9:00 PM81 °FWarm.2 mph77%29.90 "Hg12 mi
8:00 PM81 °FWarm.3 mph79%29.90 "Hg12 mi
7:00 PM82 °FWarm.5 mph77%29.88 "Hg12 mi
6:00 PM85 °FWarm.3 mph64%29.86 "Hg12 mi
5:00 PM86 °FWarm.7 mph64%29.85 "Hg12 mi
Weather by CustomWeather, © 2014

See weather overviewHow to use our weather pages